Data supplied by UK-AIR on 2/5/2024
All Data GMT hour ending 
Status: R =Ratified P=Provisional,P*=As supplied
,,Southend-on-Sea,,,,,,,,,,,,,,,,,,,,,,,
Date,time,"PM<sub>10</sub> particulate matter (Hourly measured)",status,unit,"Nitric oxide",status,unit,"Nitrogen dioxide",status,unit,"Nitrogen oxides as nitrogen dioxide",status,unit,"Ozone",status,unit,"PM<sub>2.5</sub> particulate matter (Hourly measured)",status,unit
 
01-01-2024,01:00,8.550,P,ugm-3 (FIDAS),0.83819,P,ugm-3,1.93035,P,ugm-3,3.21555,P,ugm-3,64.32806,P,ugm-3,5.377,P,ugm-3 (Ref.eq)
01-01-2024,02:00,7.950,P,ugm-3 (FIDAS),0.87810,P,ugm-3,4.52816,P,ugm-3,5.87456,P,ugm-3,61.86670,P,ugm-3,4.906,P,ugm-3 (Ref.eq)
01-01-2024,03:00,6.250,P,ugm-3 (FIDAS),0.83819,P,ugm-3,4.55844,P,ugm-3,5.84364,P,ugm-3,60.56950,P,ugm-3,3.726,P,ugm-3 (Ref.eq)
01-01-2024,04:00,7.025,P,ugm-3 (FIDAS),0.83819,P,ugm-3,3.95553,P,ugm-3,5.24073,P,ugm-3,59.57165,P,ugm-3,3.821,P,ugm-3 (Ref.eq)
01-01-2024,05:00,6.200,P,ugm-3 (FIDAS),0.80825,P,ugm-3,3.44489,P,ugm-3,4.68419,P,ugm-3,59.32218,P,ugm-3,3.278,P,ugm-3 (Ref.eq)
01-01-2024,06:00,5.350,P,ugm-3 (FIDAS),0.83819,P,ugm-3,3.90915,P,ugm-3,5.19435,P,ugm-3,57.67573,P,ugm-3,3.137,P,ugm-3 (Ref.eq)
01-01-2024,07:00,7.300,P,ugm-3 (FIDAS),0.83819,P,ugm-3,4.83671,P,ugm-3,6.12191,P,ugm-3,57.27659,P,ugm-3,4.151,P,ugm-3 (Ref.eq)
01-01-2024,08:00,9.225,P,ugm-3 (FIDAS),0.98786,P,ugm-3,6.04493,P,ugm-3,7.55963,P,ugm-3,57.22670,P,ugm-3,5.142,P,ugm-3 (Ref.eq)
01-01-2024,09:00,11.700,P,ugm-3 (FIDAS),1.01780,P,ugm-3,6.60195,P,ugm-3,8.16255,P,ugm-3,57.57595,P,ugm-3,6.109,P,ugm-3 (Ref.eq)
01-01-2024,10:00,13.525,P,ugm-3 (FIDAS),1.22734,P,ugm-3,7.30097,P,ugm-3,9.18287,P,ugm-3,56.57810,P,ugm-3,7.052,P,ugm-3 (Ref.eq)
01-01-2024,11:00,13.475,P,ugm-3 (FIDAS),1.25728,P,ugm-3,6.65215,P,ugm-3,8.57995,P,ugm-3,54.73207,P,ugm-3,6.863,P,ugm-3 (Ref.eq)
01-01-2024,12:00,13.100,P,ugm-3 (FIDAS),1.40695,P,ugm-3,7.16470,P,ugm-3,9.32200,P,ugm-3,57.47616,P,ugm-3,6.604,P,ugm-3 (Ref.eq)
01-01-2024,13:00,12.550,P,ugm-3 (FIDAS),1.46683,P,ugm-3,6.74826,P,ugm-3,8.99736,P,ugm-3,58.72347,P,ugm-3,6.344,P,ugm-3 (Ref.eq)
01-01-2024,14:00,12.950,P,ugm-3 (FIDAS),1.61650,P,ugm-3,7.12167,P,ugm-3,9.60027,P,ugm-3,57.67573,P,ugm-3,6.415,P,ugm-3 (Ref.eq)
01-01-2024,15:00,11.175,P,ugm-3 (FIDAS),2.06553,P,ugm-3,10.60720,P,ugm-3,13.77430,P,ugm-3,54.23315,P,ugm-3,5.519,P,ugm-3 (Ref.eq)
01-01-2024,16:00,10.850,P,ugm-3 (FIDAS),1.55663,P,ugm-3,11.85128,P,ugm-3,14.23808,P,ugm-3,53.48476,P,ugm-3,5.590,P,ugm-3 (Ref.eq)
01-01-2024,17:00,13.000,P,ugm-3 (FIDAS),1.37702,P,ugm-3,8.50919,P,ugm-3,10.62059,P,ugm-3,57.87530,P,ugm-3,6.840,P,ugm-3 (Ref.eq)
01-01-2024,18:00,10.000,P,ugm-3 (FIDAS),1.28721,P,ugm-3,7.02366,P,ugm-3,8.99736,P,ugm-3,62.01638,P,ugm-3,5.873,P,ugm-3 (Ref.eq)
01-01-2024,19:00,8.675,P,ugm-3 (FIDAS),1.07767,P,ugm-3,5.07243,P,ugm-3,6.72483,P,ugm-3,64.06197,P,ugm-3,5.118,P,ugm-3 (Ref.eq)
01-01-2024,20:00,8.075,P,ugm-3 (FIDAS),1.07767,P,ugm-3,3.63471,P,ugm-3,5.28711,P,ugm-3,63.96219,P,ugm-3,4.976,P,ugm-3 (Ref.eq)
01-01-2024,21:00,5.925,P,ugm-3 (FIDAS),1.04773,P,ugm-3,4.42266,P,ugm-3,6.02916,P,ugm-3,62.96434,P,ugm-3,3.420,P,ugm-3 (Ref.eq)
01-01-2024,22:00,5.525,P,ugm-3 (FIDAS),1.04773,P,ugm-3,4.14439,P,ugm-3,5.75089,P,ugm-3,65.05982,P,ugm-3,2.807,P,ugm-3 (Ref.eq)
01-01-2024,23:00,3.675,P,ugm-3 (FIDAS),1.04773,P,ugm-3,4.09801,P,ugm-3,5.70451,P,ugm-3,64.61079,P,ugm-3,1.910,P,ugm-3 (Ref.eq)
01-01-2024,24:00,3.725,P,ugm-3 (FIDAS),0.86812,P,ugm-3,2.10088,P,ugm-3,3.43198,P,ugm-3,70.94714,P,ugm-3,1.816,P,ugm-3 (Ref.eq)
02-01-2024,01:00,2.325,P,ugm-3 (FIDAS),0.85565,P,ugm-3,-0.06248,P,ugm-3,1.24950,P,ugm-3,74.70570,P,ugm-3,0.967,P,ugm-3 (Ref.eq)
02-01-2024,02:00,1.900,P,ugm-3 (FIDAS),0.85565,P,ugm-3,1.24950,P,ugm-3,2.56147,P,ugm-3,69.25079,P,ugm-3,0.825,P,ugm-3 (Ref.eq)
02-01-2024,03:00,1.700,P,ugm-3 (FIDAS),0.91677,P,ugm-3,4.77934,P,ugm-3,6.18503,P,ugm-3,65.50885,P,ugm-3,0.778,P,ugm-3 (Ref.eq)
02-01-2024,04:00,2.350,P,ugm-3 (FIDAS),0.82509,P,ugm-3,0.70284,P,ugm-3,1.96796,P,ugm-3,67.70412,P,ugm-3,1.274,P,ugm-3 (Ref.eq)
02-01-2024,05:00,4.025,P,ugm-3 (FIDAS),0.91677,P,ugm-3,2.53024,P,ugm-3,3.93593,P,ugm-3,64.21165,P,ugm-3,2.123,P,ugm-3 (Ref.eq)
02-01-2024,06:00,5.525,P,ugm-3 (FIDAS),0.97788,P,ugm-3,4.91991,P,ugm-3,6.41931,P,ugm-3,62.51530,P,ugm-3,3.208,P,ugm-3 (Ref.eq)
02-01-2024,07:00,9.600,P,ugm-3 (FIDAS),1.10012,P,ugm-3,2.01482,P,ugm-3,3.70164,P,ugm-3,64.36133,P,ugm-3,5.660,P,ugm-3 (Ref.eq)
02-01-2024,08:00,14.475,P,ugm-3 (FIDAS),2.04744,P,ugm-3,5.95074,P,ugm-3,9.09011,P,ugm-3,62.86455,P,ugm-3,8.679,P,ugm-3 (Ref.eq)
02-01-2024,09:00,12.775,P,ugm-3 (FIDAS),1.28347,P,ugm-3,10.44894,P,ugm-3,12.41691,P,ugm-3,59.27229,P,ugm-3,8.090,P,ugm-3 (Ref.eq)
02-01-2024,10:00,7.400,P,ugm-3 (FIDAS),1.71130,P,ugm-3,11.05808,P,ugm-3,13.68203,P,ugm-3,60.41982,P,ugm-3,5.000,P,ugm-3 (Ref.eq)
02-01-2024,11:00,2.600,P,ugm-3 (FIDAS),1.40571,P,ugm-3,8.01242,P,ugm-3,10.16781,P,ugm-3,62.26584,P,ugm-3,1.462,P,ugm-3 (Ref.eq)
02-01-2024,12:00,5.050,P,ugm-3 (FIDAS),,,,,,,,,,,,,2.854,P,ugm-3 (Ref.eq)
02-01-2024,13:00,3.150,P,ugm-3 (FIDAS),,,,,,,,,,,,,1.887,P,ugm-3 (Ref.eq)
02-01-2024,14:00,1.850,P,ugm-3 (FIDAS),1.34459,P,ugm-3,4.31078,P,ugm-3,6.37245,P,ugm-3,54.63229,P,ugm-3,0.943,P,ugm-3 (Ref.eq)
02-01-2024,15:00,5.900,P,ugm-3 (FIDAS),1.89465,P,ugm-3,4.54506,P,ugm-3,7.45014,P,ugm-3,58.12476,P,ugm-3,3.443,P,ugm-3 (Ref.eq)
02-01-2024,16:00,9.925,P,ugm-3 (FIDAS),1.16124,P,ugm-3,3.13937,P,ugm-3,4.91991,P,ugm-3,64.11186,P,ugm-3,4.835,P,ugm-3 (Ref.eq)
02-01-2024,17:00,6.650,P,ugm-3 (FIDAS),1.03900,P,ugm-3,2.85823,P,ugm-3,4.45134,P,ugm-3,68.15316,P,ugm-3,2.241,P,ugm-3 (Ref.eq)
02-01-2024,18:00,3.825,P,ugm-3 (FIDAS),1.06956,P,ugm-3,3.04566,P,ugm-3,4.68563,P,ugm-3,68.00348,P,ugm-3,1.651,P,ugm-3 (Ref.eq)
02-01-2024,19:00,4.350,P,ugm-3 (FIDAS),0.97788,P,ugm-3,3.23308,P,ugm-3,4.73248,P,ugm-3,68.10326,P,ugm-3,2.146,P,ugm-3 (Ref.eq)
02-01-2024,20:00,4.800,P,ugm-3 (FIDAS),1.00844,P,ugm-3,3.46736,P,ugm-3,5.01362,P,ugm-3,66.35703,P,ugm-3,2.854,P,ugm-3 (Ref.eq)
02-01-2024,21:00,7.700,P,ugm-3 (FIDAS),0.97788,P,ugm-3,3.09251,P,ugm-3,4.59191,P,ugm-3,64.66068,P,ugm-3,4.198,P,ugm-3 (Ref.eq)
02-01-2024,22:00,9.950,P,ugm-3 (FIDAS),0.97788,P,ugm-3,2.90509,P,ugm-3,4.40449,P,ugm-3,63.86240,P,ugm-3,5.377,P,ugm-3 (Ref.eq)
02-01-2024,23:00,10.150,P,ugm-3 (FIDAS),1.00844,P,ugm-3,3.70164,P,ugm-3,5.24790,P,ugm-3,61.76692,P,ugm-3,5.849,P,ugm-3 (Ref.eq)
02-01-2024,24:00,9.475,P,ugm-3 (FIDAS),0.97788,P,ugm-3,1.96796,P,ugm-3,3.46736,P,ugm-3,62.66498,P,ugm-3,5.283,P,ugm-3 (Ref.eq)
03-01-2024,01:00,9.375,P,ugm-3 (FIDAS),0.97788,P,ugm-3,2.99880,P,ugm-3,4.49820,P,ugm-3,64.19502,P,ugm-3,5.259,P,ugm-3 (Ref.eq)
03-01-2024,02:00,9.050,P,ugm-3 (FIDAS),0.97788,P,ugm-3,3.31117,P,ugm-3,4.81057,P,ugm-3,61.60061,P,ugm-3,5.354,P,ugm-3 (Ref.eq)
03-01-2024,03:00,12.100,P,ugm-3 (FIDAS),0.97788,P,ugm-3,3.60793,P,ugm-3,5.10733,P,ugm-3,61.16821,P,ugm-3,6.840,P,ugm-3 (Ref.eq)
03-01-2024,04:00,12.575,P,ugm-3 (FIDAS),0.97788,P,ugm-3,4.26392,P,ugm-3,5.76332,P,ugm-3,62.06627,P,ugm-3,7.028,P,ugm-3 (Ref.eq)
03-01-2024,05:00,7.900,P,ugm-3 (FIDAS),0.97788,P,ugm-3,3.51422,P,ugm-3,5.01362,P,ugm-3,64.26154,P,ugm-3,4.458,P,ugm-3 (Ref.eq)
03-01-2024,06:00,7.125,P,ugm-3 (FIDAS),1.00844,P,ugm-3,7.73128,P,ugm-3,9.27754,P,ugm-3,60.81896,P,ugm-3,3.750,P,ugm-3 (Ref.eq)
03-01-2024,07:00,6.400,P,ugm-3 (FIDAS),1.00844,P,ugm-3,7.21586,P,ugm-3,8.76212,P,ugm-3,61.81681,P,ugm-3,3.585,P,ugm-3 (Ref.eq)
03-01-2024,08:00,7.575,P,ugm-3 (FIDAS),1.19180,P,ugm-3,6.55988,P,ugm-3,8.38727,P,ugm-3,59.97079,P,ugm-3,4.057,P,ugm-3 (Ref.eq)
03-01-2024,09:00,11.325,P,ugm-3 (FIDAS),1.16124,P,ugm-3,6.55988,P,ugm-3,8.34041,P,ugm-3,59.17251,P,ugm-3,6.109,P,ugm-3 (Ref.eq)
03-01-2024,10:00,17.150,P,ugm-3 (FIDAS),1.49738,P,ugm-3,9.32439,P,ugm-3,11.62035,P,ugm-3,56.52820,P,ugm-3,8.962,P,ugm-3 (Ref.eq)
03-01-2024,11:00,16.700,P,ugm-3 (FIDAS),1.38534,P,ugm-3,6.99720,P,ugm-3,9.12135,P,ugm-3,59.07272,P,ugm-3,9.277,P,ugm-3 (Ref.eq)
03-01-2024,12:00,,,,,,,,,,,,,,,,,,
03-01-2024,13:00,11.500,P,ugm-3 (FIDAS),,,,,,,47.13739,P,ugm-3,,,,6.541,P,ugm-3 (Ref.eq)
03-01-2024,14:00,8.025,P,ugm-3 (FIDAS),1.43627,P,ugm-3,12.93233,P,ugm-3,15.13457,P,ugm-3,51.78842,P,ugm-3,5.047,P,ugm-3 (Ref.eq)
03-01-2024,15:00,6.050,P,ugm-3 (FIDAS),0.94732,P,ugm-3,12.04206,P,ugm-3,13.49460,P,ugm-3,53.23530,P,ugm-3,3.750,P,ugm-3 (Ref.eq)
03-01-2024,16:00,4.950,P,ugm-3 (FIDAS),0.64174,P,ugm-3,15.36885,P,ugm-3,16.35283,P,ugm-3,51.23960,P,ugm-3,3.019,P,ugm-3 (Ref.eq)
03-01-2024,17:00,4.925,P,ugm-3 (FIDAS),1.00844,P,ugm-3,13.40089,P,ugm-3,14.94714,P,ugm-3,55.72992,P,ugm-3,3.066,P,ugm-3 (Ref.eq)
03-01-2024,18:00,4.150,P,ugm-3 (FIDAS),0.36671,P,ugm-3,13.86945,P,ugm-3,14.43173,P,ugm-3,55.48046,P,ugm-3,2.972,P,ugm-3 (Ref.eq)
03-01-2024,19:00,6.175,P,ugm-3 (FIDAS),0.36671,P,ugm-3,20.56989,P,ugm-3,21.13217,P,ugm-3,45.50196,P,ugm-3,4.316,P,ugm-3 (Ref.eq)
03-01-2024,20:00,9.300,P,ugm-3 (FIDAS),0.36671,P,ugm-3,16.82139,P,ugm-3,17.38367,P,ugm-3,48.89465,P,ugm-3,5.991,P,ugm-3 (Ref.eq)
03-01-2024,21:00,8.200,P,ugm-3 (FIDAS),0.24447,P,ugm-3,14.24430,P,ugm-3,14.61915,P,ugm-3,50.34153,P,ugm-3,5.684,P,ugm-3 (Ref.eq)
03-01-2024,22:00,6.075,P,ugm-3 (FIDAS),0.30559,P,ugm-3,17.10253,P,ugm-3,17.57109,P,ugm-3,44.25465,P,ugm-3,4.434,P,ugm-3 (Ref.eq)
03-01-2024,23:00,6.725,P,ugm-3 (FIDAS),0.27503,P,ugm-3,19.16421,P,ugm-3,19.58591,P,ugm-3,40.51271,P,ugm-3,4.835,P,ugm-3 (Ref.eq)
03-01-2024,24:00,4.575,P,ugm-3 (FIDAS),0.24447,P,ugm-3,15.13457,P,ugm-3,15.50942,P,ugm-3,41.90970,P,ugm-3,3.231,P,ugm-3 (Ref.eq)
04-01-2024,01:00,5.200,P,ugm-3 (FIDAS),0.12224,P,ugm-3,10.18343,P,ugm-3,10.37085,P,ugm-3,44.70368,P,ugm-3,3.113,P,ugm-3 (Ref.eq)
04-01-2024,02:00,6.400,P,ugm-3 (FIDAS),0.16298,P,ugm-3,7.43452,P,ugm-3,7.68443,P,ugm-3,48.22942,P,ugm-3,3.703,P,ugm-3 (Ref.eq)
04-01-2024,03:00,4.425,P,ugm-3 (FIDAS),0.06112,P,ugm-3,5.10733,P,ugm-3,5.20104,P,ugm-3,53.03573,P,ugm-3,2.547,P,ugm-3 (Ref.eq)
04-01-2024,04:00,3.300,P,ugm-3 (FIDAS),0.12224,P,ugm-3,4.73248,P,ugm-3,4.91991,P,ugm-3,52.08777,P,ugm-3,1.934,P,ugm-3 (Ref.eq)
04-01-2024,05:00,4.075,P,ugm-3 (FIDAS),0.09168,P,ugm-3,4.77934,P,ugm-3,4.91991,P,ugm-3,55.92949,P,ugm-3,2.241,P,ugm-3 (Ref.eq)
04-01-2024,06:00,5.775,P,ugm-3 (FIDAS),0.03056,P,ugm-3,4.49820,P,ugm-3,4.54506,P,ugm-3,56.77767,P,ugm-3,3.255,P,ugm-3 (Ref.eq)
04-01-2024,07:00,7.300,P,ugm-3 (FIDAS),0.18335,P,ugm-3,7.87185,P,ugm-3,8.15299,P,ugm-3,51.78842,P,ugm-3,4.009,P,ugm-3 (Ref.eq)
04-01-2024,08:00,9.650,P,ugm-3 (FIDAS),0.45838,P,ugm-3,20.71046,P,ugm-3,21.41331,P,ugm-3,40.56260,P,ugm-3,5.071,P,ugm-3 (Ref.eq)
04-01-2024,09:00,10.475,P,ugm-3 (FIDAS),0.91677,P,ugm-3,20.10133,P,ugm-3,21.50702,P,ugm-3,40.61250,P,ugm-3,5.637,P,ugm-3 (Ref.eq)
04-01-2024,10:00,11.875,P,ugm-3 (FIDAS),1.65018,P,ugm-3,16.21226,P,ugm-3,18.74250,P,ugm-3,43.10712,P,ugm-3,5.542,P,ugm-3 (Ref.eq)
04-01-2024,11:00,10.350,P,ugm-3 (FIDAS),2.10856,P,ugm-3,14.19744,P,ugm-3,17.43053,P,ugm-3,46.84906,P,ugm-3,5.259,P,ugm-3 (Ref.eq)
04-01-2024,12:00,12.525,P,ugm-3 (FIDAS),2.04744,P,ugm-3,13.30718,P,ugm-3,16.44654,P,ugm-3,48.34583,P,ugm-3,6.038,P,ugm-3 (Ref.eq)
04-01-2024,13:00,13.025,P,ugm-3 (FIDAS),1.86409,P,ugm-3,17.43053,P,ugm-3,20.28876,P,ugm-3,45.20261,P,ugm-3,6.769,P,ugm-3 (Ref.eq)
04-01-2024,14:00,14.625,P,ugm-3 (FIDAS),1.80297,P,ugm-3,21.17903,P,ugm-3,23.94354,P,ugm-3,42.25895,P,ugm-3,7.476,P,ugm-3 (Ref.eq)
04-01-2024,15:00,18.425,P,ugm-3 (FIDAS),4.76718,P,ugm-3,30.12857,P,ugm-3,37.43814,P,ugm-3,35.92260,P,ugm-3,9.151,P,ugm-3 (Ref.eq)
04-01-2024,16:00,15.825,P,ugm-3 (FIDAS),2.71974,P,ugm-3,22.91271,P,ugm-3,27.08291,P,ugm-3,45.20261,P,ugm-3,8.184,P,ugm-3 (Ref.eq)
04-01-2024,17:00,11.400,P,ugm-3 (FIDAS),2.04744,P,ugm-3,29.56629,P,ugm-3,32.70566,P,ugm-3,43.90540,P,ugm-3,7.146,P,ugm-3 (Ref.eq)
04-01-2024,18:00,7.225,P,ugm-3 (FIDAS),1.28347,P,ugm-3,23.33441,P,ugm-3,25.30238,P,ugm-3,51.13981,P,ugm-3,5.165,P,ugm-3 (Ref.eq)
04-01-2024,19:00,8.700,P,ugm-3 (FIDAS),0.73341,P,ugm-3,12.93233,P,ugm-3,14.05688,P,ugm-3,52.68648,P,ugm-3,6.250,P,ugm-3 (Ref.eq)
04-01-2024,20:00,12.525,P,ugm-3 (FIDAS),0.73341,P,ugm-3,9.55868,P,ugm-3,10.68323,P,ugm-3,56.27874,P,ugm-3,7.759,P,ugm-3 (Ref.eq)
04-01-2024,21:00,9.000,P,ugm-3 (FIDAS),0.39727,P,ugm-3,7.49700,P,ugm-3,8.10613,P,ugm-3,60.22025,P,ugm-3,5.142,P,ugm-3 (Ref.eq)
04-01-2024,22:00,5.225,P,ugm-3 (FIDAS),0.18335,P,ugm-3,4.87305,P,ugm-3,5.15419,P,ugm-3,69.30068,P,ugm-3,3.090,P,ugm-3 (Ref.eq)
04-01-2024,23:00,2.950,P,ugm-3 (FIDAS),0.18335,P,ugm-3,4.54506,P,ugm-3,4.82619,P,ugm-3,70.09896,P,ugm-3,1.651,P,ugm-3 (Ref.eq)
04-01-2024,24:00,4.250,P,ugm-3 (FIDAS),0.21391,P,ugm-3,5.20104,P,ugm-3,5.52904,P,ugm-3,65.95789,P,ugm-3,2.594,P,ugm-3 (Ref.eq)
05-01-2024,01:00,4.700,P,ugm-3 (FIDAS),0.57043,P,ugm-3,5.43533,P,ugm-3,6.30997,P,ugm-3,60.20362,P,ugm-3,2.877,P,ugm-3 (Ref.eq)
05-01-2024,02:00,5.075,P,ugm-3 (FIDAS),0.12224,P,ugm-3,9.12135,P,ugm-3,9.30877,P,ugm-3,47.69723,P,ugm-3,3.585,P,ugm-3 (Ref.eq)
05-01-2024,03:00,1.150,P,ugm-3 (FIDAS),0.06112,P,ugm-3,2.71766,P,ugm-3,2.81138,P,ugm-3,68.35273,P,ugm-3,0.778,P,ugm-3 (Ref.eq)
05-01-2024,04:00,0.675,P,ugm-3 (FIDAS),0.09168,P,ugm-3,2.38967,P,ugm-3,2.53024,P,ugm-3,70.19875,P,ugm-3,0.448,P,ugm-3 (Ref.eq)
05-01-2024,05:00,1.000,P,ugm-3 (FIDAS),0.06112,P,ugm-3,2.38967,P,ugm-3,2.48338,P,ugm-3,72.64348,P,ugm-3,0.708,P,ugm-3 (Ref.eq)
05-01-2024,06:00,1.525,P,ugm-3 (FIDAS),0.12224,P,ugm-3,3.37365,P,ugm-3,3.56108,P,ugm-3,67.65423,P,ugm-3,1.038,P,ugm-3 (Ref.eq)
05-01-2024,07:00,2.500,P,ugm-3 (FIDAS),0.36671,P,ugm-3,6.37245,P,ugm-3,6.93473,P,ugm-3,59.42197,P,ugm-3,1.934,P,ugm-3 (Ref.eq)
05-01-2024,08:00,5.175,P,ugm-3 (FIDAS),0.70285,P,ugm-3,12.37005,P,ugm-3,13.44774,P,ugm-3,45.95099,P,ugm-3,4.245,P,ugm-3 (Ref.eq)
05-01-2024,09:00,7.950,P,ugm-3 (FIDAS),1.10012,P,ugm-3,16.63397,P,ugm-3,18.32079,P,ugm-3,38.06798,P,ugm-3,6.675,P,ugm-3 (Ref.eq)
05-01-2024,10:00,8.700,P,ugm-3 (FIDAS),1.71130,P,ugm-3,15.60313,P,ugm-3,18.22708,P,ugm-3,35.32389,P,ugm-3,7.005,P,ugm-3 (Ref.eq)
05-01-2024,11:00,8.125,P,ugm-3 (FIDAS),1.31403,P,ugm-3,13.40089,P,ugm-3,15.41571,P,ugm-3,37.12002,P,ugm-3,6.344,P,ugm-3 (Ref.eq)
05-01-2024,12:00,7.025,P,ugm-3 (FIDAS),1.83353,P,ugm-3,12.83861,P,ugm-3,15.64999,P,ugm-3,39.81422,P,ugm-3,5.377,P,ugm-3 (Ref.eq)
05-01-2024,13:00,6.875,P,ugm-3 (FIDAS),1.52794,P,ugm-3,13.16661,P,ugm-3,15.50942,P,ugm-3,40.21336,P,ugm-3,4.976,P,ugm-3 (Ref.eq)
05-01-2024,14:00,6.225,P,ugm-3 (FIDAS),1.34459,P,ugm-3,12.04206,P,ugm-3,14.10373,P,ugm-3,41.41078,P,ugm-3,4.528,P,ugm-3 (Ref.eq)
05-01-2024,15:00,6.100,P,ugm-3 (FIDAS),1.00844,P,ugm-3,13.30718,P,ugm-3,14.85343,P,ugm-3,40.96174,P,ugm-3,4.505,P,ugm-3 (Ref.eq)
05-01-2024,16:00,5.575,P,ugm-3 (FIDAS),0.91677,P,ugm-3,15.55628,P,ugm-3,16.96196,P,ugm-3,40.31314,P,ugm-3,4.127,P,ugm-3 (Ref.eq)
05-01-2024,17:00,5.525,P,ugm-3 (FIDAS),0.85565,P,ugm-3,13.07289,P,ugm-3,14.38487,P,ugm-3,41.61035,P,ugm-3,3.844,P,ugm-3 (Ref.eq)
05-01-2024,18:00,5.375,P,ugm-3 (FIDAS),0.91677,P,ugm-3,15.36885,P,ugm-3,16.77454,P,ugm-3,37.86841,P,ugm-3,3.538,P,ugm-3 (Ref.eq)
05-01-2024,19:00,4.250,P,ugm-3 (FIDAS),0.79453,P,ugm-3,12.13577,P,ugm-3,13.35403,P,ugm-3,39.26540,P,ugm-3,2.877,P,ugm-3 (Ref.eq)
05-01-2024,20:00,4.500,P,ugm-3 (FIDAS),0.55006,P,ugm-3,10.49580,P,ugm-3,11.33921,P,ugm-3,38.91615,P,ugm-3,2.854,P,ugm-3 (Ref.eq)
05-01-2024,21:00,4.450,P,ugm-3 (FIDAS),0.39727,P,ugm-3,10.12095,P,ugm-3,10.73008,P,ugm-3,39.46497,P,ugm-3,3.137,P,ugm-3 (Ref.eq)
05-01-2024,22:00,6.000,P,ugm-3 (FIDAS),0.42782,P,ugm-3,10.35523,P,ugm-3,11.01122,P,ugm-3,36.87056,P,ugm-3,4.458,P,ugm-3 (Ref.eq)
05-01-2024,23:00,7.625,P,ugm-3 (FIDAS),0.39727,P,ugm-3,12.51062,P,ugm-3,13.11975,P,ugm-3,30.78367,P,ugm-3,5.731,P,ugm-3 (Ref.eq)
05-01-2024,24:00,11.250,P,ugm-3 (FIDAS),0.48894,P,ugm-3,12.37005,P,ugm-3,13.11975,P,ugm-3,29.13722,P,ugm-3,9.127,P,ugm-3 (Ref.eq)
06-01-2024,01:00,5.300,P,ugm-3 (FIDAS),0.24447,P,ugm-3,7.05967,P,ugm-3,7.43452,P,ugm-3,37.45264,P,ugm-3,3.656,P,ugm-3 (Ref.eq)
06-01-2024,02:00,4.200,P,ugm-3 (FIDAS),0.12224,P,ugm-3,5.99760,P,ugm-3,6.18503,P,ugm-3,41.77665,P,ugm-3,2.830,P,ugm-3 (Ref.eq)
06-01-2024,03:00,3.225,P,ugm-3 (FIDAS),0.06112,P,ugm-3,3.88907,P,ugm-3,3.98278,P,ugm-3,49.09422,P,ugm-3,2.075,P,ugm-3 (Ref.eq)
06-01-2024,04:00,2.450,P,ugm-3 (FIDAS),0.00000,P,ugm-3,2.67081,P,ugm-3,2.67081,P,ugm-3,52.68648,P,ugm-3,1.392,P,ugm-3 (Ref.eq)
06-01-2024,05:00,2.350,P,ugm-3 (FIDAS),0.12224,P,ugm-3,2.95194,P,ugm-3,3.13937,P,ugm-3,48.59530,P,ugm-3,1.344,P,ugm-3 (Ref.eq)
06-01-2024,06:00,2.975,P,ugm-3 (FIDAS),0.12224,P,ugm-3,4.87305,P,ugm-3,5.06048,P,ugm-3,43.60605,P,ugm-3,1.981,P,ugm-3 (Ref.eq)
06-01-2024,07:00,3.825,P,ugm-3 (FIDAS),0.30559,P,ugm-3,6.60673,P,ugm-3,7.07529,P,ugm-3,39.41508,P,ugm-3,2.406,P,ugm-3 (Ref.eq)
06-01-2024,08:00,3.975,P,ugm-3 (FIDAS),0.42782,P,ugm-3,7.45014,P,ugm-3,8.10613,P,ugm-3,39.76432,P,ugm-3,2.453,P,ugm-3 (Ref.eq)
06-01-2024,09:00,4.250,P,ugm-3 (FIDAS),0.85565,P,ugm-3,9.79296,P,ugm-3,11.10493,P,ugm-3,39.11572,P,ugm-3,2.500,P,ugm-3 (Ref.eq)
06-01-2024,10:00,5.075,P,ugm-3 (FIDAS),1.16124,P,ugm-3,11.43293,P,ugm-3,13.21346,P,ugm-3,37.71873,P,ugm-3,3.066,P,ugm-3 (Ref.eq)
06-01-2024,11:00,4.050,P,ugm-3 (FIDAS),1.68074,P,ugm-3,11.19864,P,ugm-3,13.77574,P,ugm-3,41.95959,P,ugm-3,2.406,P,ugm-3 (Ref.eq)
06-01-2024,12:00,4.175,P,ugm-3 (FIDAS),1.92521,P,ugm-3,8.52784,P,ugm-3,11.47978,P,ugm-3,47.59745,P,ugm-3,2.241,P,ugm-3 (Ref.eq)
06-01-2024,13:00,3.275,P,ugm-3 (FIDAS),1.68074,P,ugm-3,9.32439,P,ugm-3,11.90149,P,ugm-3,49.39358,P,ugm-3,1.934,P,ugm-3 (Ref.eq)
06-01-2024,14:00,2.725,P,ugm-3 (FIDAS),1.25291,P,ugm-3,8.62155,P,ugm-3,10.54266,P,ugm-3,50.79057,P,ugm-3,1.698,P,ugm-3 (Ref.eq)
06-01-2024,15:00,3.400,P,ugm-3 (FIDAS),1.46683,P,ugm-3,10.77694,P,ugm-3,13.02604,P,ugm-3,47.24820,P,ugm-3,2.123,P,ugm-3 (Ref.eq)
06-01-2024,16:00,4.725,P,ugm-3 (FIDAS),1.10012,P,ugm-3,11.29236,P,ugm-3,12.97918,P,ugm-3,45.50196,P,ugm-3,3.184,P,ugm-3 (Ref.eq)
06-01-2024,17:00,3.875,P,ugm-3 (FIDAS),1.25291,P,ugm-3,12.69804,P,ugm-3,14.61915,P,ugm-3,46.40003,P,ugm-3,3.113,P,ugm-3 (Ref.eq)
06-01-2024,18:00,7.850,P,ugm-3 (FIDAS),1.46683,P,ugm-3,17.43053,P,ugm-3,19.67963,P,ugm-3,39.46497,P,ugm-3,6.321,P,ugm-3 (Ref.eq)
06-01-2024,19:00,6.075,P,ugm-3 (FIDAS),1.16124,P,ugm-3,15.74370,P,ugm-3,17.52424,P,ugm-3,39.46497,P,ugm-3,4.953,P,ugm-3 (Ref.eq)
06-01-2024,20:00,5.600,P,ugm-3 (FIDAS),1.22235,P,ugm-3,15.83741,P,ugm-3,17.71166,P,ugm-3,38.66669,P,ugm-3,4.575,P,ugm-3 (Ref.eq)
06-01-2024,21:00,5.300,P,ugm-3 (FIDAS),1.00844,P,ugm-3,17.05568,P,ugm-3,18.60193,P,ugm-3,38.26755,P,ugm-3,3.868,P,ugm-3 (Ref.eq)
06-01-2024,22:00,5.850,P,ugm-3 (FIDAS),0.61118,P,ugm-3,9.13697,P,ugm-3,10.07409,P,ugm-3,48.64519,P,ugm-3,4.080,P,ugm-3 (Ref.eq)
06-01-2024,23:00,6.700,P,ugm-3 (FIDAS),0.48894,P,ugm-3,8.85583,P,ugm-3,9.60553,P,ugm-3,49.99229,P,ugm-3,4.363,P,ugm-3 (Ref.eq)
06-01-2024,24:00,7.150,P,ugm-3 (FIDAS),0.27503,P,ugm-3,6.65359,P,ugm-3,7.07529,P,ugm-3,52.93594,P,ugm-3,4.104,P,ugm-3 (Ref.eq)
07-01-2024,01:00,6.525,P,ugm-3 (FIDAS),0.16298,P,ugm-3,4.49820,P,ugm-3,4.74810,P,ugm-3,57.47616,P,ugm-3,3.797,P,ugm-3 (Ref.eq)
07-01-2024,02:00,6.400,P,ugm-3 (FIDAS),0.04075,P,ugm-3,4.62315,P,ugm-3,4.68563,P,ugm-3,61.33451,P,ugm-3,3.396,P,ugm-3 (Ref.eq)
07-01-2024,03:00,5.400,P,ugm-3 (FIDAS),0.00000,P,ugm-3,3.09251,P,ugm-3,3.09251,P,ugm-3,65.55875,P,ugm-3,2.712,P,ugm-3 (Ref.eq)
07-01-2024,04:00,5.125,P,ugm-3 (FIDAS),-0.03056,P,ugm-3,2.34281,P,ugm-3,2.29596,P,ugm-3,65.05982,P,ugm-3,2.594,P,ugm-3 (Ref.eq)
07-01-2024,05:00,4.925,P,ugm-3 (FIDAS),-0.03056,P,ugm-3,2.38967,P,ugm-3,2.34281,P,ugm-3,64.21165,P,ugm-3,2.524,P,ugm-3 (Ref.eq)
07-01-2024,06:00,4.450,P,ugm-3 (FIDAS),0.00000,P,ugm-3,3.84221,P,ugm-3,3.84221,P,ugm-3,61.46756,P,ugm-3,2.406,P,ugm-3 (Ref.eq)
07-01-2024,07:00,3.700,P,ugm-3 (FIDAS),0.03056,P,ugm-3,4.59191,P,ugm-3,4.63877,P,ugm-3,58.62369,P,ugm-3,2.193,P,ugm-3 (Ref.eq)
07-01-2024,08:00,3.900,P,ugm-3 (FIDAS),0.24447,P,ugm-3,6.32559,P,ugm-3,6.70044,P,ugm-3,55.82971,P,ugm-3,2.264,P,ugm-3 (Ref.eq)
07-01-2024,09:00,4.475,P,ugm-3 (FIDAS),0.51950,P,ugm-3,8.24670,P,ugm-3,9.04326,P,ugm-3,53.98369,P,ugm-3,2.594,P,ugm-3 (Ref.eq)
07-01-2024,10:00,5.825,P,ugm-3 (FIDAS),0.88621,P,ugm-3,8.90269,P,ugm-3,10.26152,P,ugm-3,57.17681,P,ugm-3,3.396,P,ugm-3 (Ref.eq)
07-01-2024,11:00,6.625,P,ugm-3 (FIDAS),1.06956,P,ugm-3,8.15299,P,ugm-3,9.79296,P,ugm-3,63.86240,P,ugm-3,3.420,P,ugm-3 (Ref.eq)
07-01-2024,12:00,7.875,P,ugm-3 (FIDAS),1.31403,P,ugm-3,8.52784,P,ugm-3,10.54266,P,ugm-3,65.50885,P,ugm-3,3.844,P,ugm-3 (Ref.eq)
07-01-2024,13:00,7.350,P,ugm-3 (FIDAS),1.34459,P,ugm-3,8.66841,P,ugm-3,10.73008,P,ugm-3,66.15746,P,ugm-3,3.962,P,ugm-3 (Ref.eq)
07-01-2024,14:00,7.950,P,ugm-3 (FIDAS),1.40571,P,ugm-3,9.69924,P,ugm-3,11.85463,P,ugm-3,66.50670,P,ugm-3,4.387,P,ugm-3 (Ref.eq)
07-01-2024,15:00,9.200,P,ugm-3 (FIDAS),1.25291,P,ugm-3,9.69924,P,ugm-3,11.62035,P,ugm-3,66.65638,P,ugm-3,5.778,P,ugm-3 (Ref.eq)
07-01-2024,16:00,9.150,P,ugm-3 (FIDAS),1.13068,P,ugm-3,10.35523,P,ugm-3,12.08891,P,ugm-3,65.35918,P,ugm-3,6.038,P,ugm-3 (Ref.eq)
07-01-2024,17:00,8.725,P,ugm-3 (FIDAS),1.06956,P,ugm-3,10.35523,P,ugm-3,11.99520,P,ugm-3,63.96219,P,ugm-3,6.014,P,ugm-3 (Ref.eq)
07-01-2024,18:00,11.625,P,ugm-3 (FIDAS),0.94732,P,ugm-3,11.15179,P,ugm-3,12.60433,P,ugm-3,65.45896,P,ugm-3,7.500,P,ugm-3 (Ref.eq)
07-01-2024,19:00,11.150,P,ugm-3 (FIDAS),0.97788,P,ugm-3,10.58951,P,ugm-3,12.08891,P,ugm-3,63.61294,P,ugm-3,6.533,P,ugm-3 (Ref.eq)
07-01-2024,20:00,10.325,P,ugm-3 (FIDAS),0.88621,P,ugm-3,11.57349,P,ugm-3,12.93233,P,ugm-3,63.16391,P,ugm-3,5.802,P,ugm-3 (Ref.eq)
07-01-2024,21:00,8.300,P,ugm-3 (FIDAS),0.21391,P,ugm-3,4.82619,P,ugm-3,5.15419,P,ugm-3,73.69122,P,ugm-3,4.080,P,ugm-3 (Ref.eq)
07-01-2024,22:00,7.125,P,ugm-3 (FIDAS),-0.03056,P,ugm-3,5.10733,P,ugm-3,5.06048,P,ugm-3,71.24649,P,ugm-3,3.467,P,ugm-3 (Ref.eq)
07-01-2024,23:00,7.175,P,ugm-3 (FIDAS),-0.09168,P,ugm-3,5.15419,P,ugm-3,5.01362,P,ugm-3,69.89939,P,ugm-3,3.420,P,ugm-3 (Ref.eq)
07-01-2024,24:00,5.950,P,ugm-3 (FIDAS),-0.06112,P,ugm-3,4.07649,P,ugm-3,3.98278,P,ugm-3,71.04692,P,ugm-3,2.948,P,ugm-3 (Ref.eq)
08-01-2024,01:00,5.900,P,ugm-3 (FIDAS),-0.12223,P,ugm-3,4.06087,P,ugm-3,3.87345,P,ugm-3,68.78513,P,ugm-3,2.736,P,ugm-3 (Ref.eq)
08-01-2024,02:00,5.800,P,ugm-3 (FIDAS),-0.04075,P,ugm-3,5.49780,P,ugm-3,5.43533,P,ugm-3,59.87100,P,ugm-3,2.972,P,ugm-3 (Ref.eq)
08-01-2024,03:00,4.225,P,ugm-3 (FIDAS),-0.03056,P,ugm-3,3.88907,P,ugm-3,3.84221,P,ugm-3,63.56305,P,ugm-3,2.429,P,ugm-3 (Ref.eq)
08-01-2024,04:00,4.550,P,ugm-3 (FIDAS),-0.06112,P,ugm-3,3.32679,P,ugm-3,3.23308,P,ugm-3,64.96004,P,ugm-3,2.429,P,ugm-3 (Ref.eq)
08-01-2024,05:00,4.650,P,ugm-3 (FIDAS),-0.06112,P,ugm-3,3.09251,P,ugm-3,2.99880,P,ugm-3,67.85380,P,ugm-3,2.146,P,ugm-3 (Ref.eq)
08-01-2024,06:00,4.300,P,ugm-3 (FIDAS),0.30559,P,ugm-3,5.43533,P,ugm-3,5.90389,P,ugm-3,67.10541,P,ugm-3,2.193,P,ugm-3 (Ref.eq)
08-01-2024,07:00,4.675,P,ugm-3 (FIDAS),0.64174,P,ugm-3,8.19984,P,ugm-3,9.18383,P,ugm-3,63.61294,P,ugm-3,2.311,P,ugm-3 (Ref.eq)
08-01-2024,08:00,5.500,P,ugm-3 (FIDAS),1.34459,P,ugm-3,11.76092,P,ugm-3,13.82259,P,ugm-3,62.01638,P,ugm-3,2.594,P,ugm-3 (Ref.eq)
08-01-2024,09:00,6.575,P,ugm-3 (FIDAS),2.59750,P,ugm-3,16.44654,P,ugm-3,20.42933,P,ugm-3,55.97939,P,ugm-3,3.090,P,ugm-3 (Ref.eq)
08-01-2024,10:00,7.425,P,ugm-3 (FIDAS),2.20024,P,ugm-3,16.16541,P,ugm-3,19.53906,P,ugm-3,53.18541,P,ugm-3,4.340,P,ugm-3 (Ref.eq)
08-01-2024,11:00,7.100,P,ugm-3 (FIDAS),1.80297,P,ugm-3,11.52664,P,ugm-3,14.29116,P,ugm-3,51.58885,P,ugm-3,4.104,P,ugm-3 (Ref.eq)
08-01-2024,12:00,6.450,P,ugm-3 (FIDAS),1.77241,P,ugm-3,10.26152,P,ugm-3,12.97918,P,ugm-3,52.78627,P,ugm-3,3.609,P,ugm-3 (Ref.eq)
08-01-2024,13:00,5.675,P,ugm-3 (FIDAS),2.20024,P,ugm-3,11.90149,P,ugm-3,15.27514,P,ugm-3,51.08992,P,ugm-3,3.915,P,ugm-3 (Ref.eq)
08-01-2024,14:00,7.125,P,ugm-3 (FIDAS),1.71130,P,ugm-3,11.24550,P,ugm-3,13.86945,P,ugm-3,54.48261,P,ugm-3,4.292,P,ugm-3 (Ref.eq)
08-01-2024,15:00,6.275,P,ugm-3 (FIDAS),1.49738,P,ugm-3,12.79176,P,ugm-3,15.08771,P,ugm-3,57.42627,P,ugm-3,3.632,P,ugm-3 (Ref.eq)
08-01-2024,16:00,6.300,P,ugm-3 (FIDAS),1.37515,P,ugm-3,11.24550,P,ugm-3,13.35403,P,ugm-3,63.26369,P,ugm-3,3.255,P,ugm-3 (Ref.eq)
08-01-2024,17:00,7.450,P,ugm-3 (FIDAS),1.19180,P,ugm-3,12.97918,P,ugm-3,14.80658,P,ugm-3,59.12261,P,ugm-3,4.151,P,ugm-3 (Ref.eq)